Vorticity
nan nan nan nan nan nan nan nan nan nan nan nan nan nan nan nan nan nan nan nan nan nan nan nan nan nan nan nan nan nan nan nan nan nan nan nan nan nan nan nan nan nan nan nan nan nan nan
nan 8 7 8 9 6 5 5 9 9 7 6 5 5 8 6 5 4 6 6 6 5 6 6 5 13 13 6 6 5 9 9 8 10 9 9 9 10 6 8 9 8 10 5 6 6 nan
nan 5 5 5 8 10 7 5 8 10 10 7 6 6 6 6 6 4 4 8 9 4 5 6 9 12 9 8 5 9 10 9 8 10 8 6 9 11 8 10 12 4 3 8 7 7 nan
nan 7 6 4 4 7 9 8 7 8 7 7 7 8 6 7 6 9 8 8 8 4 6 7 9 11 7 7 7 7 11 11 9 10 8 5 13 10 9 7 7 6 5 8 9 6 nan
nan 8 7 7 6 5 7 9 8 7 5 4 4 7 9 7 7 8 11 8 3 7 8 9 11 9 8 9 8 6 10 9 7 7 8 9 11 7 7 7 3 11 9 5 11 6 nan
nan 7 8 9 8 7 6 7 10 9 6 6 6 7 7 7 7 10 10 3 7 13 13 11 8 8 13 9 6 8 7 9 10 7 8 8 9 5 5 11 11 8 7 10 11 9 nan
nan 6 9 10 7 7 7 7 10 10 9 8 7 8 7 7 9 6 5 5 9 13 14 10 8 9 9 7 8 8 8 11 10 9 10 7 9 12 7 -1 8 10 9 7 9 12 nan
nan 7 8 8 8 8 8 8 5 10 12 8 8 7 8 8 10 7 2 5 7 10 10 7 7 8 7 10 8 7 10 12 9 9 2 10 10 9 12 7 7 9 9 4 9 11 nan
nan 9 8 7 10 9 10 7 5 10 11 9 8 7 8 9 9 8 4 6 8 9 11 9 8 6 9 7 8 9 7 9 9 9 9 5 5 10 12 12 8 9 10 9 9 9 nan
nan 8 8 8 9 9 11 10 8 9 11 11 8 8 7 4 8 9 6 10 8 8 12 14 9 7 10 8 9 6 8 11 13 11 6 1 11 11 8 9 8 7 8 13 8 9 nan
nan 6 9 9 8 8 8 11 11 8 10 11 9 7 5 0 3 7 14 13 7 8 6 14 10 9 12 10 7 7 10 12 9 9 12 10 8 9 9 8 7 9 11 10 7 6 nan
nan 21 11 6 8 9 8 10 11 9 9 8 8 7 3 -2 5 12 12 7 7 10 12 7 8 10 6 7 8 10 8 9 9 6 7 13 7 9 9 8 11 12 5 6 11 8 nan
nan 36 34 12 7 8 8 10 10 10 8 9 8 5 0 4 8 11 5 5 10 7 14 11 9 10 7 10 7 9 11 9 5 6 6 6 6 10 8 3 8 10 7 6 6 12 nan
nan 12 10 26 31 10 8 9 11 11 9 9 8 5 1 1 9 8 6 10 10 8 8 11 10 11 8 6 11 11 6 7 5 6 13 10 8 9 8 10 11 4 7 11 11 4 nan
nan 7 7 4 34 30 9 9 12 11 11 9 1 2 9 11 9 6 11 8 10 11 12 7 5 8 10 9 11 11 8 8 13 7 5 4 10 7 8 9 13 13 6 9 7 8 nan
nan 11 10 7 16 31 20 8 8 10 10 2 -1 9 13 12 5 7 11 9 5 9 9 9 9 9 11 8 8 10 8 7 13 8 7 8 6 7 10 7 11 12 6 8 9 13 nan
nan 11 11 10 7 27 28 8 8 9 9 -2 -2 9 13 6 1 12 8 9 9 9 9 10 8 8 12 12 7 6 3 9 16 11 9 8 7 10 12 13 7 4 7 9 15 9 nan
nan 8 13 14 10 10 18 23 23 9 5 -7 1 12 10 6 2 8 12 1 8 10 7 9 9 11 15 10 8 11 9 8 13 13 7 3 6 13 6 9 10 10 10 9 8 8 nan
nan 11 11 14 15 14 9 28 27 10 -6 -9 6 7 9 13 10 5 13 6 3 11 10 10 7 8 13 11 9 13 7 10 13 12 10 5 2 5 7 11 16 14 9 6 6 16 nan
nan 10 10 12 15 18 10 15 21 23 -6 -11 6 9 9 9 14 17 7 15 7 0 9 9 8 9 11 10 13 12 6 10 9 8 11 13 13 12 9 9 11 12 13 7 1 5 nan
nan 9 10 10 11 19 15 12 25 19 -3 -13 6 12 14 14 7 9 11 10 11 2 10 8 9 9 7 6 11 10 8 6 9 11 13 12 9 7 12 13 10 11 14 13 3 4 nan
nan 11 11 11 11 15 20 13 9 23 10 -12 7 7 10 21 22 5 3 12 12 7 4 7 10 13 4 2 10 10 8 10 8 8 7 9 14 9 7 10 12 10 14 14 6 3 nan
nan 11 11 11 10 11 19 20 11 21 2 -7 6 12 17 14 14 10 5 8 14 6 4 15 10 5 7 13 14 14 9 12 15 9 8 10 9 8 10 9 6 15 20 8 9 14 nan
nan 12 11 14 13 11 18 25 13 16 2 -4 10 8 10 16 16 11 9 3 12 8 2 10 15 8 13 14 5 10 10 15 11 7 10 8 7 9 11 8 8 6 18 24 8 3 nan
nan 12 14 12 9 15 21 24 9 9 6 4 12 8 9 15 8 17 18 12 1 8 11 7 10 15 11 0 7 7 5 11 12 13 8 7 7 11 12 3 5 16 15 14 13 5 nan
nan 17 19 15 11 14 13 18 21 12 -0 7 12 6 13 18 12 12 9 13 16 4 7 12 16 12 3 6 12 12 7 9 11 15 12 5 8 8 8 12 6 12 14 5 7 14 nan
nan 18 16 18 19 20 11 9 21 17 11 10 15 9 7 10 23 14 10 7 6 10 6 11 9 5 9 10 11 10 13 10 14 12 11 8 14 11 2 2 4 18 10 8 7 15 nan
nan 30 18 13 16 18 17 16 22 18 18 8 6 17 13 7 15 21 15 10 11 10 9 5 4 10 12 13 9 10 11 9 10 10 11 8 9 12 12 12 8 9 27 9 -3 16 nan
nan nan nan nan nan nan nan nan nan nan nan nan nan nan nan nan nan nan nan nan nan nan nan nan nan nan nan nan nan nan nan nan nan nan nan nan nan nan nan nan nan nan nan nan nan nan nan
CAPE
9 23 1 1 7 0 0 0 0 9 29 22 3 5 9 11 14 21 10 9 1 4 0 0 0 0 0 0 0 0 0 0 0 0 0 0 0 0 0 0 0 0 0 0 0 0 0
5 6 13 14 19 12 0 0 0 4 15 32 10 2 6 20 13 10 13 8 2 3 0 0 0 0 0 0 0 0 0 0 0 0 0 0 0 0 0 0 0 0 0 0 0 0 0
10 18 14 2 19 30 5 0 0 14 26 25 16 1 3 4 12 11 11 19 1 5 0 0 0 0 0 0 0 0 0 0 0 0 0 0 0 0 0 0 0 0 0 0 0 0 0
9 19 19 17 1 7 27 24 1 11 28 19 17 13 18 15 24 23 19 12 3 0 0 0 0 0 0 0 0 0 0 0 0 0 0 0 0 0 0 0 0 0 0 0 0 0 0
10 11 19 23 17 3 11 34 36 5 5 9 5 6 19 13 26 20 24 11 0 0 0 0 0 0 0 0 0 0 0 0 0 0 0 0 0 0 0 0 0 0 0 0 0 0 0
13 14 17 15 27 14 13 17 32 32 10 5 3 16 4 29 36 26 20 0 0 0 0 0 0 0 0 0 0 0 0 0 0 0 0 0 0 0 0 0 0 0 0 0 0 0 0
15 13 20 18 23 26 14 20 24 49 46 16 0 9 0 27 35 32 1 0 0 0 0 0 0 0 0 0 0 0 0 0 0 0 0 0 0 0 0 0 0 0 0 0 0 0 0
15 16 11 23 36 27 30 30 17 38 66 45 11 9 0 22 28 33 0 0 0 0 0 0 0 0 0 0 0 0 0 0 0 0 0 0 0 0 0 0 0 0 0 0 0 0 0
18 18 17 26 21 37 49 57 40 33 67 53 31 22 2 13 49 14 0 0 0 0 0 0 0 0 0 0 0 0 0 0 0 0 0 0 0 0 0 0 0 0 0 0 0 0 0
11 30 30 31 27 49 61 68 56 57 80 56 44 32 20 33 3 0 0 0 0 0 0 0 0 0 0 0 0 0 0 0 0 0 0 0 0 0 0 0 0 0 0 0 0 0 0
19 30 34 36 33 29 42 58 71 69 74 65 51 32 48 18 0 0 0 0 0 0 0 0 0 0 0 0 0 0 0 0 0 0 0 0 0 0 0 0 0 0 0 0 0 0 0
53 49 24 28 34 27 26 36 63 73 70 73 62 37 48 39 4 0 0 0 0 0 0 0 0 0 0 0 0 0 0 0 0 0 0 0 0 0 0 0 0 0 0 0 0 0 0
4 8 52 28 26 29 36 44 61 67 85 77 82 62 59 0 0 0 0 0 0 0 0 0 0 0 0 0 0 0 0 0 0 0 0 0 0 0 0 0 0 0 0 0 0 0 0
14 5 13 19 74 51 40 42 74 74 61 67 84 74 72 0 0 0 0 0 0 0 0 0 0 0 0 0 0 0 0 0 0 0 0 0 0 0 0 0 0 0 0 0 0 0 0
9 1 8 4 4 75 98 58 86 73 68 58 87 32 20 0 0 0 0 0 0 0 0 0 0 0 0 0 0 0 0 0 0 0 0 0 0 0 0 0 0 0 0 0 0 0 0
23 15 1 8 11 51 78 115 132 79 75 66 11 3 3 0 0 0 0 0 0 0 0 0 0 0 0 0 0 0 0 0 0 0 0 0 0 0 0 0 0 0 0 0 0 0 0
43 41 8 6 23 18 82 127 125 130 100 75 1 2 0 0 0 0 0 0 0 0 0 0 0 0 0 0 0 0 0 0 0 0 0 0 0 0 0 0 0 0 0 0 0 0 0
60 49 48 43 14 15 26 38 97 145 141 14 0 1 0 0 0 0 0 0 0 0 0 0 0 0 0 0 0 0 0 0 0 0 0 0 0 0 0 0 0 0 0 0 0 0 0
67 62 49 53 32 29 28 10 90 133 162 0 1 0 0 0 0 0 0 0 0 0 0 0 0 0 0 0 0 0 0 0 0 0 0 0 0 0 0 0 0 0 0 0 0 0 0
92 81 56 55 51 27 35 9 32 97 206 11 0 1 1 0 0 0 0 0 0 0 0 0 0 0 0 0 0 0 0 0 0 0 0 0 0 0 0 0 0 0 0 0 0 0 0
89 109 92 67 57 55 51 50 24 92 138 17 0 0 0 0 0 0 0 0 0 0 0 0 0 0 0 0 0 0 0 0 0 0 0 0 0 0 0 0 0 0 0 0 0 0 0
103 114 137 102 75 58 81 57 14 69 98 11 0 0 0 0 0 0 0 0 0 0 0 0 0 0 0 0 0 0 0 0 0 0 0 0 0 0 0 0 0 0 0 0 0 0 0
122 124 168 138 85 69 44 74 49 4 79 1 0 0 0 0 0 0 0 0 0 0 0 0 0 0 0 0 0 0 0 0 0 0 0 0 0 0 0 0 0 0 0 0 0 0 0
133 160 195 140 108 92 64 58 43 41 61 1 0 0 0 0 0 0 0 0 0 0 0 0 0 0 0 0 0 0 0 0 0 0 0 0 0 0 0 0 0 0 0 0 0 0 0
167 193 188 157 89 71 78 83 63 16 11 29 0 0 0 0 0 0 0 0 0 0 0 0 0 0 0 0 0 0 0 0 0 0 0 0 0 0 0 0 0 0 0 0 0 0 0
193 225 192 163 113 38 81 39 52 51 30 45 12 0 0 0 0 0 0 0 0 0 0 0 0 0 0 0 0 0 0 0 0 0 0 0 0 0 0 0 0 0 0 0 0 0 0
207 156 161 225 168 109 82 10 42 62 21 38 24 0 0 0 0 0 0 0 0 0 0 0 0 0 0 0 0 0 0 0 0 0 1 0 0 0 0 0 0 0 0 0 0 0 0
114 166 90 116 107 126 61 43 63 54 22 35 1 1 0 0 0 0 0 0 0 0 0 0 0 0 0 0 0 0 0 0 0 0 0 0 0 0 0 0 0 0 0 0 0 0 0
83 75 140 92 86 103 90 64 72 67 13 0 0 1 0 0 0 1 2 1 0 0 0 0 0 0 0 0 0 0 0 0 0 0 0 0 0 0 0 0 0 0 0 0 0 0 0